Observations for Trim Market St
| Time | AQI | Temp °C | Hum % | Pres Pa | CO μg/m³ | H₂S μg/m³ | NO μg/m³ | NO₂ μg/m³ | O₃ μg/m³ | SO₂ μg/m³ | PM1 μg/m³ | PM2.5 μg/m³ | PM10 μg/m³ |
|---|---|---|---|---|---|---|---|---|---|---|---|---|---|
| Saturday 22 August 2026 | |||||||||||||
| 02:20 | 2 | 12.6 | 71 | 56,803 | 0.49 | 0 | 2.95 | 6.72 | 46.49 | 0 | 1.43 | 2.53 | 4.42 |
| 02:19 | 2 | 12.6 | 71 | 56,753 | 0.5 | 0 | 2.98 | 7.4 | 48.34 | 0 | 2.14 | 3.5 | 5.67 |
| 02:18 | 2 | 12.6 | 71 | 56,703 | 0.47 | 0 | 3.25 | 6.62 | 47.27 | 0 | 1.43 | 3.49 | 6.29 |
| 02:17 | 2 | 12.5 | 71 | 56,653 | 0.46 | 0 | 3.3 | 6.82 | 44.28 | 0 | 1.43 | 2.51 | 4.43 |
| 02:16 | 2 | 12.5 | 71 | 56,601 | 0.48 | 0 | 3.46 | 7.93 | 49.11 | 0 | 2.14 | 3.47 | 6.91 |
| 02:15 | 2 | 12.5 | 72 | 56,544 | 0.46 | 0 | 3.85 | 6.96 | 46 | 0 | 2.14 | 3.47 | 6.29 |
| 02:14 | 2 | 12.5 | 72 | 56,499 | 0.48 | 0 | 4.05 | 6.98 | 47.95 | 0 | 1.43 | 2.49 | 4.44 |
| 02:13 | 2 | 12.4 | 72 | 56,447 | 0.54 | 0 | 4.16 | 8.37 | 45.79 | 0 | 1.43 | 2.01 | 3.83 |
| 02:12 | 2 | 12.4 | 72 | 56,409 | 0.7 | 0 | 4.42 | 7.56 | 46.39 | 0 | 1.43 | 2.49 | 5.68 |
| 02:11 | 2 | 12.4 | 72 | 56,372 | 0.52 | 0 | 4.45 | 8.07 | 44.74 | 0 | 1.43 | 2.48 | 5.07 |
| 02:10 | 2 | 12.3 | 72 | 56,336 | 0.5 | 0 | 5.53 | 7.61 | 45.81 | 0 | 0.71 | 2.48 | 4.45 |
| 02:09 | 2 | 12.3 | 72 | 56,293 | 0.5 | 0 | 4.88 | 7.7 | 45.57 | 0 | 1.43 | 2.96 | 5.07 |
| 02:08 | 2 | 12.3 | 72 | 56,243 | 0.49 | 0 | 5.31 | 7.81 | 49.01 | 0 | 0.71 | 2.96 | 5.69 |
| 02:06 | 2 | 12.2 | 72 | 56,188 | 0.49 | 0 | 4.98 | 8.25 | 44.48 | 0 | 1.43 | 3.43 | 5.69 |
| 02:05 | 2 | 12.2 | 72 | 56,141 | 0.51 | 0 | 4.36 | 8.95 | 44.82 | 0 | 1.43 | 2.95 | 5.69 |
| 02:03 | 2 | 12.1 | 72 | 56,042 | 0.5 | 0 | 4.2 | 7.88 | 45.84 | 0 | 1.43 | 2.94 | 5.08 |
| 02:02 | 2 | 12.1 | 73 | 55,974 | 0.49 | 0 | 4.48 | 7.89 | 44.37 | 0 | 1.43 | 2.93 | 5.7 |
| 02:01 | 2 | 12.1 | 73 | 55,905 | 0.51 | 0 | 4.07 | 9.15 | 44.16 | 0 | 1.43 | 3.41 | 5.7 |
| 01:59 | 2 | 12 | 73 | 55,763 | 0.52 | 0 | 4 | 11.84 | 40.19 | 0 | 0.71 | 2.44 | 4.48 |
| 01:58 | 2 | 12 | 73 | 55,693 | 0.49 | 0 | 3.82 | 9.73 | 42.94 | 0 | 1.43 | 2.92 | 5.09 |